Location: Haulchin
(50.3172°N, 3.4360°E)
Time: 01:29:24
(UTC+00:00)

CZ-2D R/B - Pass Details

Date: 23 May 2024
Orbit: 790 x 843 km, 98.8° (Epoch: 16 June)

Event Time Altitude Azimuth Distance (km) Brightness Sun altitude
Rises 01:50:14 0° 16° (NNE) 3,414 7.0 -13.7°
Reaches altitude 10° 01:52:37 10° 18° (NNE) 2,473 6.0 -13.5°
Maximum altitude 01:58:08 77° 104° (ESE) 865 2.3 -13.0°
Enters shadow 02:02:43 15° 190° (S) 2,116 3.7 -12.6°
